Date,TemperatureHighF,TemperatureAvgF,TemperatureLowF,DewpointHighF,DewpointAvgF,DewpointLowF,HumidityHigh,HumidityAvg,HumidityLow,PressureMaxIn,PressureMinIn,WindSpeedMaxMPH,WindSpeedAvgMPH,GustSpeedMaxMPH,PrecipitationSumIn
2013-1-1,23.0,21.1,19.0,16.0,11.4,8.0,76,66,58,30.11,29.99,11,4,197,0.00
2013-1-2,26.0,23.3,21.0,20.0,16.2,12.0,81,74,66,30.10,29.97,10,2,10,0.00
2013-1-3,29.0,26.6,23.0,23.0,20.6,18.0,85,78,68,30.04,29.94,15,3,197,0.00
2013-1-4,33.0,27.3,25.0,26.0,20.9,18.0,88,77,68,30.08,29.85,19,6,197,0.00
2013-1-5,36.0,30.0,21.0,30.0,22.7,17.0,85,74,62,30.17,29.83,10,2,160,0.13
2013-1-6,36.0,30.4,28.0,30.0,23.9,20.0,84,76,70,30.23,29.81,10,4,16,0.03
2013-1-7,40.0,32.7,26.0,29.0,22.7,18.0,75,66,54,30.23,29.88,23,6,25,0.06
2013-1-8,44.0,35.2,28.0,30.0,27.7,24.0,88,74,58,30.12,29.94,9,2,14,0.05
2013-1-9,39.0,36.7,31.0,32.0,27.0,23.0,76,68,62,30.40,29.79,13,5,24,0.09
2013-1-10,42.0,32.4,23.0,28.0,23.9,19.0,88,72,50,30.52,30.10,5,1,12,0.08
2013-1-11,44.0,39.4,34.0,43.0,37.2,25.0,97,92,60,30.10,29.64,8,3,125,0.03
2013-1-12,52.0,44.4,35.0,46.0,38.0,28.0,97,79,55,29.94,29.60,21,6,27,0.01
2013-1-13,34.0,30.6,27.0,30.0,27.7,21.0,92,88,77,29.97,29.83,9,2,190,0.01
2013-1-14,27.0,22.3,19.0,21.0,14.0,9.0,86,70,55,30.34,29.96,12,4,197,0.01
2013-1-15,27.0,22.6,15.0,18.0,12.8,7.0,75,65,57,30.35,30.04,12,4,197,0.01
2013-1-16,30.0,26.0,22.0,27.0,20.0,14.0,92,78,64,30.04,29.62,16,5,22,0.00
2013-1-17,24.0,15.5,13.0,15.0,5.0,-2.0,81,63,48,30.29,29.95,13,5,21,0.00
2013-1-18,38.0,20.2,12.0,32.0,12.8,1.0,86,73,57,30.33,29.71,11,3,197,0.00
2013-1-19,38.0,33.1,28.0,36.0,30.0,24.0,94,89,79,29.80,29.42,13,3,23,0.83
2013-1-20,28.0,15.0,11.0,26.0,7.8,3.0,91,73,62,30.12,29.45,21,6,197,0.71
2013-1-21,11.0,7.5,1.0,7.0,1.8,-5.0,82,77,68,30.06,29.92,12,3,16,0.00
2013-1-22,7.0,3.2,1.0,1.0,-2.8,-5.0,76,75,72,30.19,30.03,6,2,10,0.00
2013-1-23,13.0,10.4,7.0,8.0,4.9,0.0,83,78,71,30.18,30.01,5,2,10,0.00
2013-1-24,13.0,3.6,-8.0,1.0,-4.1,-15.0,80,70,57,30.62,30.29,4,1,6,0.10
2013-1-25,19.0,13.6,6.0,14.0,7.7,-2.0,83,77,67,30.44,29.94,8,2,11,0.01
2013-1-26,27.0,19.8,16.0,18.0,14.0,12.0,86,78,63,30.34,30.01,3,0,4,0.03
2013-1-27,29.0,25.3,19.0,25.0,19.6,14.0,89,79,67,30.38,30.03,10,3,11,0.01
2013-1-28,33.0,30.2,27.0,31.0,27.7,24.0,93,90,87,30.03,29.81,6,1,8,0.00
2013-1-29,43.0,34.6,29.0,42.0,32.3,26.0,96,92,88,29.98,29.44,7,3,11,0.42
2013-1-30,34.0,30.2,20.0,33.0,28.4,16.0,95,93,86,29.47,29.11,14,6,23,0.24
2013-1-31,19.0,16.1,14.0,16.0,12.2,9.0,87,84,78,29.82,29.22,12,6,18,0.01
2013-2-1,15.0,13.5,10.0,12.0,8.8,4.0,87,81,71,30.09,29.83,12,4,19,0.00
2013-2-2,15.0,10.9,7.0,9.0,5.8,2.0,87,80,63,30.07,29.99,10,2,11,0.00
2013-2-3,17.0,12.4,7.0,13.0,6.7,1.0,87,78,65,29.99,29.79,8,3,15,0.00
2013-2-4,18.0,13.5,10.0,11.0,7.1,4.0,84,75,65,29.96,29.90,4,2,11,0.00
2013-2-5,22.0,11.2,5.0,17.0,5.9,0.0,84,79,69,29.91,29.79,17,3,21,0.00
2013-2-6,26.0,20.8,12.0,20.0,14.2,8.0,89,76,60,30.22,30.09,7,1,13,0.04
2013-2-7,28.0,25.2,21.0,25.0,22.3,13.0,92,89,56,30.19,30.06,10,2,197,0.01
2013-2-8,23.0,17.7,4.0,19.0,12.8,-1.0,91,81,72,30.38,30.08,11,5,15,0.00
2013-2-9,29.0,7.4,-9.0,15.0,0.1,-15.0,84,72,52,30.41,30.21,5,1,10,0.02
2013-2-10,38.0,28.1,16.0,33.0,21.9,12.0,93,78,63,30.18,29.61,7,2,16,0.25
2013-2-11,35.0,31.7,27.0,33.0,28.8,22.0,93,89,81,29.76,29.36,14,6,17,0.48
2013-2-12,27.0,25.9,25.0,23.0,20.2,18.0,84,79,73,29.95,29.77,10,3,190,0.03
2013-2-13,38.0,32.0,25.0,30.0,26.4,20.0,100,80,70,29.84,29.66,7,1,197,0.19
2013-2-14,34.0,31.1,22.0,33.0,28.9,18.0,97,92,83,29.84,29.58,12,4,20,0.15
2013-2-15,23.0,21.5,19.0,19.0,15.6,13.0,86,78,68,30.05,29.84,10,5,16,0.08
2013-2-16,19.0,12.2,1.0,11.0,5.4,-5.0,86,74,60,30.14,30.03,10,2,12,0.05
2013-2-17,20.0,9.0,-3.0,13.0,2.9,-8.0,80,75,63,30.16,30.11,5,1,197,0.01
2013-2-18,38.0,24.8,15.0,33.0,15.7,-17.0,94,68,18,30.08,29.44,10,4,197,0.16
2013-2-19,39.0,24.7,15.0,38.0,22.3,11.0,97,90,83,29.84,29.19,14,6,27,0.28
2013-2-20,19.0,14.2,12.0,14.0,7.3,4.0,84,74,68,30.26,29.84,16,10,190,0.01
2013-2-21,21.0,16.4,13.0,12.0,8.5,7.0,82,71,60,30.42,30.28,13,5,23,0.03
2013-2-22,29.0,24.9,16.0,26.0,21.8,12.0,92,88,83,30.30,29.80,8,2,197,0.01
2013-2-23,33.0,27.7,25.0,28.0,25.4,23.0,96,91,79,29.84,29.75,6,1,167,0.49
2013-2-24,34.0,28.3,20.0,28.0,24.5,19.0,95,85,71,30.11,29.81,7,2,12,0.54
2013-2-25,37.0,31.8,28.0,26.0,25.2,24.0,91,77,61,30.17,30.12,7,1,9,0.14
2013-2-26,35.0,30.7,24.0,26.0,24.0,19.0,86,76,65,30.17,29.76,15,4,197,0.01
2013-2-27,34.0,32.5,32.0,31.0,29.2,26.0,95,88,79,29.76,29.64,14,7,19,0.01
2013-2-28,32.0,29.2,24.0,31.0,24.2,14.0,97,82,64,30.09,29.70,13,7,17,0.00
2013-3-1,24.0,19.7,16.0,14.0,11.2,7.0,76,69,61,30.22,30.09,13,7,189,0.00
2013-3-2,23.0,17.2,12.0,15.0,9.7,5.0,81,72,65,30.19,30.10,13,4,16,0.00
2013-3-3,24.0,13.4,-2.0,15.0,7.5,-7.0,86,77,65,30.10,30.05,10,3,14,0.00
2013-3-4,26.0,15.3,1.0,15.0,7.5,-4.0,88,72,48,30.16,30.09,7,2,10,0.00
2013-3-5,31.0,24.2,3.0,21.0,16.6,-1.0,84,73,62,30.16,30.00,14,4,17,0.00
2013-3-6,37.0,30.8,25.0,29.0,26.1,19.0,95,82,70,30.27,30.07,10,5,17,0.00
2013-3-7,28.0,25.7,24.0,24.0,18.4,16.0,88,74,62,30.44,30.26,11,4,19,0.00
2013-3-8,39.0,23.1,14.0,25.0,18.0,11.0,89,81,51,30.50,30.39,7,1,9,0.00
2013-3-9,43.0,31.6,16.0,33.0,23.4,13.0,94,74,50,30.34,29.96,8,2,197,0.92
2013-3-10,40.0,37.0,35.0,40.0,36.1,33.0,100,97,92,29.96,29.81,8,2,29,1.91
2013-3-11,46.0,37.8,32.0,45.0,37.2,32.0,100,98,94,29.80,29.44,8,2,10,1.65
2013-3-12,32.0,27.1,24.0,32.0,25.5,22.0,99,94,87,29.83,29.50,8,2,12,0.23
2013-3-13,26.0,21.8,18.0,19.0,16.2,14.0,92,79,60,30.20,29.84,14,6,22,0.01
2013-3-14,34.0,27.2,16.0,21.0,18.2,13.0,87,69,55,30.23,29.98,10,3,26,0.26
2013-3-15,32.0,28.2,22.0,31.0,20.6,12.0,95,73,59,29.98,29.87,14,7,130,0.11
2013-3-16,22.0,19.2,17.0,15.0,11.8,9.0,87,73,58,30.00,29.89,9,4,12,0.01
2013-3-17,22.0,17.1,13.0,10.0,7.3,4.0,72,65,56,30.24,30.00,5,1,8,0.01
2013-3-18,34.0,22.3,8.0,28.0,16.2,3.0,94,78,54,30.21,29.49,8,2,14,0.00
2013-3-19,30.0,25.1,21.0,29.0,21.8,16.0,95,87,71,29.82,29.45,14,4,17,0.00
2013-3-20,25.0,22.7,20.0,20.0,14.4,9.0,91,71,58,29.88,29.81,10,4,17,0.05
2013-3-21,26.0,25.1,23.0,23.0,19.6,16.0,91,79,66,29.94,29.80,13,6,21,0.01
2013-3-22,32.0,27.2,23.0,24.0,21.6,17.0,89,79,70,30.05,29.92,10,4,14,0.03
2013-3-23,35.0,29.8,26.0,27.0,23.5,21.0,86,77,61,30.12,30.05,8,2,12,0.09
2013-3-24,32.0,27.9,24.0,27.0,22.6,17.0,89,80,69,30.10,29.85,10,3,10,0.09
2013-3-25,37.0,31.3,24.0,28.0,24.1,17.0,82,75,64,30.00,29.83,15,6,17,0.01
2013-3-26,39.0,34.3,31.0,31.0,27.6,24.0,91,77,54,30.15,30.00,18,5,21,0.00
2013-3-27,40.0,33.6,26.0,30.0,27.6,25.0,96,79,63,30.22,30.12,10,3,16,1.28
2013-3-28,43.0,34.8,25.0,30.0,26.3,22.0,89,72,48,30.28,30.22,7,1,10,1.28
2013-3-29,44.0,32.6,19.0,28.0,21.7,17.0,94,67,39,30.30,30.22,7,1,10,0.00
2013-3-30,49.0,36.7,20.0,37.0,21.5,15.0,89,58,31,30.22,29.83,8,2,13,0.05
2013-3-31,41.0,37.0,28.0,40.0,33.0,-99.9,97,89,67,29.81,29.59,17,4,22,0.29
2013-4-1,27.0,24.2,21.0,21.0,16.4,9.0,89,72,60,30.08,29.75,17,7,24,0.03
2013-4-2,30.0,26.1,20.0,18.0,14.0,9.0,73,60,50,30.25,30.04,14,4,18,0.01
2013-4-3,34.0,27.3,20.0,18.0,14.1,10.0,73,58,42,30.43,30.25,11,3,17,0.00
2013-4-4,46.0,34.5,25.0,35.0,22.5,9.0,94,64,39,30.28,29.95,13,4,23,0.04
2013-4-5,35.0,30.8,26.0,30.0,20.3,16.0,82,65,52,30.25,30.03,13,5,20,0.01
2013-4-6,43.0,31.8,24.0,31.0,25.0,18.0,89,76,58,30.22,29.58,10,3,18,0.10
2013-4-7,47.0,38.0,29.0,45.0,33.1,26.0,97,83,58,30.05,29.42,12,4,18,0.22
2013-4-8,41.0,33.4,25.0,37.0,31.0,24.0,97,91,75,30.05,29.78,8,2,10,0.19
2013-4-9,41.0,36.0,33.0,39.0,35.1,30.0,99,97,90,30.12,29.99,9,3,14,0.17
2013-4-10,40.0,35.0,32.0,34.0,31.2,26.0,97,87,68,30.14,30.06,10,3,14,0.28
2013-4-11,35.0,31.9,29.0,27.0,23.8,20.0,87,72,62,30.12,29.82,10,4,17,0.04
2013-4-12,35.0,31.3,28.0,33.0,28.5,24.0,95,89,84,29.82,29.61,9,3,13,0.14
2013-4-13,36.0,32.6,30.0,33.0,29.8,26.0,97,89,72,29.91,29.68,11,3,18,0.34
2013-4-14,44.0,35.3,25.0,30.0,26.6,23.0,93,72,50,30.07,29.92,7,2,14,0.28
2013-4-15,52.0,45.0,38.0,52.0,40.9,29.0,100,86,70,29.93,29.74,12,3,16,0.21
2013-4-16,47.0,40.1,34.0,42.0,32.1,29.0,92,74,55,30.34,29.88,14,3,20,0.09
2013-4-17,49.0,37.5,26.0,36.0,31.0,24.0,95,79,56,30.40,30.09,10,2,14,0.02
2013-4-18,48.0,42.0,36.0,48.0,41.1,34.0,100,96,87,30.11,29.38,5,2,8,0.43
2013-4-19,54.0,38.4,28.0,54.0,33.0,17.0,100,81,64,29.69,29.23,22,7,28,0.14
2013-4-20,33.0,27.0,24.0,23.0,18.1,15.0,87,69,52,30.45,29.68,13,5,23,0.01
2013-4-21,48.0,33.5,17.0,28.0,18.8,14.0,90,60,27,30.60,30.37,8,2,12,0.01
2013-4-22,64.0,46.0,37.0,36.0,31.0,27.0,79,57,34,30.37,30.14,14,4,17,0.00
2013-4-23,57.0,43.0,32.0,47.0,36.2,30.0,98,78,58,30.14,29.88,9,3,15,0.26
2013-4-24,44.0,36.0,32.0,32.0,28.7,24.0,97,76,47,30.01,29.91,12,4,16,0.15
2013-4-25,46.0,38.3,32.0,35.0,30.1,25.0,88,73,50,30.28,29.91,10,4,20,0.01
2013-4-26,62.0,46.4,30.0,42.0,32.8,25.0,85,62,37,30.35,30.16,11,4,23,0.00
2013-4-27,70.0,58.0,46.0,52.0,46.4,39.0,85,67,40,30.24,30.11,9,3,14,0.05
2013-4-28,73.0,54.7,37.0,48.0,40.6,-99.9,98,67,30,30.11,29.82,6,1,12,0.00
2013-4-29,64.0,54.7,47.0,56.0,51.6,46.0,100,90,70,29.89,29.85,5,2,10,0.08
2013-4-30,74.0,61.2,48.0,61.0,55.9,48.0,100,85,56,29.91,29.79,19,4,24,0.23
2013-5-1,73.0,62.8,45.0,61.0,52.4,36.0,83,69,55,30.29,29.90,11,5,16,0.01
2013-5-2,61.0,46.7,38.0,46.0,38.1,33.0,85,73,55,30.31,30.17,16,6,18,0.00
2013-5-3,72.0,52.6,37.0,53.0,42.0,33.0,89,70,46,30.23,30.05,8,3,15,0.00
2013-5-4,77.0,62.2,46.0,50.0,42.5,19.0,87,54,19,30.14,30.05,10,2,14,0.00
2013-5-5,75.0,59.9,41.0,43.0,36.3,26.0,80,44,23,30.15,30.03,14,2,15,0.00
2013-5-6,73.0,59.8,42.0,46.0,37.3,32.0,86,47,24,30.12,30.01,13,3,18,0.00
2013-5-7,75.0,61.2,42.0,43.0,36.7,30.0,83,45,21,30.11,30.01,12,2,17,0.00
2013-5-8,75.0,62.6,46.0,48.0,39.9,32.0,87,48,21,30.06,29.99,10,2,14,0.00
2013-5-9,72.0,54.1,44.0,49.0,42.9,39.0,90,68,34,30.04,29.96,15,4,18,0.03
2013-5-10,47.0,40.7,38.0,45.0,35.8,-99.9,92,87,81,30.05,29.96,11,4,17,0.70
2013-5-11,48.0,38.5,33.0,42.0,35.0,31.0,93,87,76,29.96,29.72,9,3,14,0.18
2013-5-12,38.0,35.8,34.0,34.0,27.3,-99.9,91,74,58,30.08,29.78,17,7,28,0.12
2013-5-13,49.0,39.7,28.0,30.0,23.9,18.0,85,56,31,30.16,30.05,9,2,14,0.01
2013-5-14,67.0,54.3,40.0,44.0,35.2,25.0,66,49,36,30.04,29.64,11,3,17,0.00
2013-5-15,71.0,60.0,52.0,48.0,43.8,39.0,77,57,32,29.79,29.46,12,4,22,0.00
2013-5-16,59.0,48.9,42.0,45.0,21.7,-99.9,90,64,46,30.09,29.77,11,3,14,0.00
2013-5-17,65.0,51.8,38.0,46.0,37.0,-99.9,92,69,40,30.22,30.09,6,1,9,0.00
2013-5-18,70.0,58.6,50.0,49.0,45.1,39.0,83,62,41,30.21,30.04,7,1,9,0.00
2013-5-19,82.0,67.7,55.0,63.0,52.8,42.0,79,59,48,30.04,29.85,9,2,13,0.00
2013-5-20,85.0,67.6,59.0,70.0,61.8,55.0,95,82,54,29.90,29.71,9,1,15,0.38
2013-5-21,78.0,64.6,57.0,64.0,60.3,54.0,99,87,56,29.80,29.67,13,2,14,0.43
2013-5-22,60.0,56.5,53.0,60.0,56.1,52.0,100,99,96,29.76,29.68,8,2,12,0.25
2013-5-23,53.0,45.9,41.0,52.0,41.0,33.0,98,84,66,30.26,29.76,20,8,23,0.52
2013-5-24,53.0,43.3,34.0,38.0,33.7,29.0,87,70,51,30.41,30.26,10,4,16,0.01
2013-5-25,60.0,46.7,32.0,43.0,36.4,30.0,97,71,42,30.45,30.33,10,3,16,0.00
2013-5-26,64.0,50.3,34.0,45.0,37.3,32.0,96,66,33,30.40,30.24,10,2,12,0.00
2013-5-27,73.0,57.5,38.0,46.0,37.2,29.0,92,53,21,30.28,30.02,8,2,10,0.00
2013-5-28,60.0,56.5,53.0,59.0,50.4,36.0,99,82,41,30.02,29.76,3,1,10,0.36
2013-5-29,70.0,59.6,52.0,64.0,57.9,52.0,100,94,81,29.96,29.76,5,1,9,0.04
2013-5-30,86.0,72.2,57.0,73.0,65.3,56.0,100,81,55,29.95,29.87,9,3,17,0.01
2013-5-31,80.0,71.5,65.0,68.0,64.3,61.0,98,80,54,29.93,29.77,11,4,19,0.32
2013-6-1,76.0,66.8,57.0,66.0,62.7,54.0,97,87,71,29.78,29.66,12,2,21,0.16
2013-6-2,59.0,47.1,39.0,58.0,42.6,-99.9,97,88,71,30.03,29.62,16,4,18,0.15
2013-6-3,58.0,50.7,38.0,43.0,38.6,35.0,90,65,47,30.14,30.03,8,3,22,0.00
2013-6-4,61.0,50.0,35.0,48.0,39.6,34.0,98,71,42,30.24,30.14,10,2,11,0.00
2013-6-5,58.0,53.6,49.0,53.0,48.2,40.0,91,82,66,30.22,30.11,7,1,8,0.00
2013-6-6,67.0,58.4,48.0,49.0,43.9,38.0,81,60,40,30.11,29.97,10,2,13,0.00
2013-6-7,71.0,58.1,46.0,49.0,44.4,38.0,92,64,31,30.00,29.91,13,3,18,0.00
2013-6-8,68.0,56.6,44.0,55.0,46.4,41.0,94,71,40,30.09,29.94,7,2,10,0.05
2013-6-9,75.0,61.5,42.0,59.0,51.3,40.0,97,72,54,30.14,30.01,5,2,10,0.05
2013-6-10,70.0,63.6,58.0,63.0,57.1,50.0,93,80,59,30.01,29.82,6,2,11,0.00
2013-6-11,76.0,62.9,57.0,65.0,58.8,55.0,96,87,65,29.91,29.83,9,2,12,0.00
2013-6-12,77.0,64.1,55.0,65.0,55.8,50.0,100,78,44,29.95,29.77,10,2,12,0.00
2013-6-13,68.0,60.0,54.0,59.0,53.8,50.0,89,80,70,30.03,29.75,17,6,22,0.00
2013-6-14,70.0,58.0,45.0,51.0,44.2,35.0,95,64,28,30.15,30.03,10,3,10,0.00
2013-6-15,74.0,59.8,44.0,62.0,50.0,39.0,91,72,50,30.07,29.85,7,1,9,0.07
2013-6-16,77.0,63.8,57.0,64.0,59.0,53.0,99,86,58,29.87,29.75,8,2,13,0.59
2013-6-17,68.0,59.1,53.0,59.0,55.0,51.0,97,87,71,30.02,29.84,10,2,13,0.02
2013-6-18,68.0,57.9,45.0,53.0,46.9,39.0,98,71,34,30.13,30.02,13,3,15,0.00
2013-6-19,72.0,57.8,42.0,53.0,46.4,40.0,97,69,38,30.21,30.12,10,2,16,0.00
2013-6-20,80.0,62.3,47.0,58.0,50.1,44.0,92,67,44,30.19,30.11,6,2,9,0.00
2013-6-22,76.0,67.2,62.0,67.0,62.8,60.0,95,86,72,30.10,29.99,8,3,13,0.00
2013-6-23,84.0,73.4,60.0,71.0,66.8,59.0,100,81,60,30.04,29.88,10,3,14,0.00
2013-6-24,82.0,76.0,68.0,72.0,68.5,65.0,92,78,66,30.00,29.88,9,3,11,0.00
2013-6-25,77.0,71.2,65.0,68.0,65.5,62.0,93,83,70,29.89,29.83,8,2,12,0.00
2013-6-26,84.0,71.0,60.0,70.0,64.8,59.0,100,82,53,29.85,29.77,10,2,13,0.00
2013-6-27,80.0,69.1,63.0,67.0,64.0,61.0,98,85,54,29.81,29.69,8,2,13,0.04
2013-6-28,71.0,67.4,61.0,66.0,62.8,60.0,96,85,79,29.68,29.61,11,4,14,0.04
2013-6-29,74.0,66.5,60.0,63.0,59.3,55.0,95,78,61,29.81,29.62,12,4,13,0.02
2013-6-30,75.0,66.7,56.0,56.0,50.2,41.0,88,58,30,30.05,29.81,12,4,18,0.01
2013-7-1,67.0,54.6,49.0,55.0,50.1,43.0,95,86,44,30.18,30.05,2,0,5,0.00
2013-7-2,72.0,60.8,48.0,52.0,46.9,41.0,94,64,36,30.18,30.10,9,2,13,0.00
2013-7-3,77.0,66.2,54.0,60.0,53.8,48.0,85,65,49,30.13,30.04,7,1,11,0.00
2013-7-4,78.0,68.4,60.0,65.0,61.0,58.0,97,78,60,30.10,30.02,8,2,12,0.00
2013-7-5,85.0,71.7,61.0,67.0,60.4,56.0,88,70,42,30.08,30.01,8,2,10,0.00
2013-7-6,86.0,73.0,61.0,66.0,60.7,56.0,87,67,43,30.06,29.98,7,2,11,0.00
2013-7-7,85.0,72.2,62.0,68.0,63.7,58.0,96,77,48,30.00,29.93,10,2,13,0.03
2013-7-8,76.0,68.4,66.0,71.0,65.3,-99.9,96,93,81,30.01,29.93,4,1,8,0.50
2013-7-9,80.0,70.9,66.0,72.0,67.5,65.0,96,89,72,30.00,29.78,4,1,8,0.09
2013-7-10,71.0,66.3,58.0,69.0,58.4,-99.9,96,80,62,29.96,29.71,10,3,18,1.12
2013-7-11,73.0,62.6,53.0,60.0,55.1,51.0,97,79,53,30.11,29.96,10,3,15,0.93
2013-7-12,81.0,64.1,51.0,61.0,54.7,49.0,96,75,38,30.19,30.10,7,2,11,0.00
2013-7-13,83.0,71.9,59.0,65.0,59.6,55.0,91,67,49,30.22,30.12,9,2,12,0.00
2013-7-14,85.0,72.3,57.0,68.0,62.6,55.0,96,74,50,30.27,30.21,11,2,14,0.00
2013-7-15,88.0,73.3,62.0,70.0,64.8,60.0,96,77,49,30.32,30.26,7,1,10,0.00
2013-7-16,91.0,77.6,65.0,74.0,68.9,63.0,96,77,53,30.29,30.21,6,2,10,0.00
2013-7-17,91.0,82.4,73.0,74.0,71.1,68.0,91,70,49,30.25,30.14,7,3,11,0.00
2013-7-18,84.0,76.3,71.0,74.0,71.2,68.0,94,85,66,30.15,29.83,8,2,10,0.00
2013-7-19,84.0,78.4,67.0,74.0,69.3,60.0,91,74,63,29.83,29.67,16,4,20,0.31
2013-7-20,69.0,63.8,55.0,60.0,51.8,-99.9,95,68,47,30.01,29.76,13,4,17,0.22
2013-7-21,74.0,60.3,44.0,59.0,52.2,42.0,94,76,47,30.06,29.95,9,2,10,0.00
2013-7-22,86.0,70.3,59.0,66.0,60.8,55.0,91,74,51,29.96,29.68,8,2,13,0.00
2013-7-23,77.0,64.0,57.0,66.0,55.4,45.0,91,74,62,29.94,29.65,17,6,25,0.22
2013-7-24,69.0,59.5,44.0,53.0,48.0,42.0,95,68,47,30.07,29.94,7,2,12,0.01
2013-7-25,78.0,62.7,48.0,57.0,51.6,46.0,95,71,40,30.08,30.00,8,2,12,0.00
2013-7-26,74.0,60.8,57.0,64.0,57.0,53.0,100,88,64,30.01,29.36,10,2,14,0.11
2013-7-27,61.0,58.0,56.0,61.0,55.9,49.0,100,93,78,29.84,29.33,8,3,14,0.80
2013-7-28,64.0,57.3,53.0,55.0,52.6,49.0,97,85,64,29.91,29.76,10,2,15,0.06
2013-7-29,68.0,58.2,54.0,57.0,54.5,53.0,98,88,67,30.19,29.90,5,2,12,0.06
2013-7-30,74.0,60.9,50.0,61.0,55.4,49.0,97,83,55,30.24,30.12,4,1,7,0.02
2013-7-31,76.0,65.5,57.0,64.0,59.7,56.0,96,82,63,30.12,29.91,13,2,22,0.04
2013-8-1,72.0,63.4,56.0,64.0,57.5,55.0,99,83,57,29.92,29.88,9,2,13,0.49
2013-8-2,72.0,63.2,55.0,64.0,57.9,54.0,97,84,58,29.93,29.82,10,2,13,0.14
2013-8-3,67.0,61.0,52.0,60.0,54.7,51.0,98,81,68,30.10,29.93,12,4,16,0.23
2013-8-4,68.0,61.7,53.0,56.0,51.8,48.0,96,72,49,30.22,30.10,10,3,12,0.23
2013-8-5,70.0,57.7,47.0,56.0,51.4,45.0,96,81,55,30.13,29.92,3,1,8,0.01
2013-8-6,76.0,67.2,58.0,67.0,60.6,54.0,91,80,69,29.92,29.82,6,2,9,0.00
2013-8-7,72.0,66.9,60.0,66.0,62.2,56.0,98,85,72,29.99,29.69,12,3,27,0.11
2013-8-8,72.0,60.9,50.0,57.0,53.2,49.0,97,78,51,30.07,30.00,5,2,10,0.03
2013-8-9,73.0,61.9,49.0,62.0,54.2,47.0,96,77,57,30.06,29.92,10,4,17,0.02
2013-8-10,70.0,60.9,48.0,57.0,51.7,47.0,96,73,53,30.16,30.05,8,1,11,0.01
2013-8-11,74.0,62.2,51.0,63.0,55.0,49.0,94,79,55,30.12,30.04,7,2,9,0.01
2013-8-12,76.0,61.5,56.0,63.0,57.5,53.0,99,88,63,30.06,29.90,14,3,18,0.03
2013-8-13,60.0,56.1,53.0,53.0,45.0,-99.9,80,69,61,30.12,29.96,13,8,23,0.01
2013-8-14,56.0,50.4,46.0,51.0,47.6,45.0,96,90,75,30.17,29.62,6,2,12,0.00
2013-8-15,73.0,53.0,50.0,62.0,33.8,-99.9,97,74,52,29.63,29.58,6,2,10,0.00
2013-8-16,78.0,59.3,47.0,65.0,53.8,-99.9,100,89,53,30.21,29.63,6,1,10,0.00
2013-8-18,81.0,64.0,52.0,62.0,54.6,-99.9,99,77,45,30.22,30.10,4,2,10,0.00
2013-8-19,80.0,63.0,57.0,66.0,43.7,-99.9,94,77,58,30.10,30.00,7,3,13,0.00
2013-8-20,84.0,73.0,64.0,70.0,63.0,-99.9,93,76,58,30.08,30.00,9,3,17,0.00
2013-8-21,88.0,77.6,68.0,73.0,68.7,64.0,100,75,60,30.03,29.91,12,3,23,0.08
2013-8-22,76.0,68.7,59.0,71.0,63.9,58.0,100,86,57,30.12,29.92,10,3,16,0.20
2013-8-23,76.0,63.2,49.0,64.0,57.9,49.0,100,85,60,30.22,30.13,8,2,14,0.00
2013-8-24,81.0,66.0,54.0,65.0,59.0,53.0,100,80,52,30.29,30.21,6,2,10,0.00
2013-9-1,76.0,69.4,62.0,67.0,64.5,58.0,94,85,71,29.80,29.70,12,3,17,0.02
2013-9-2,62.0,56.9,54.0,58.0,52.2,49.0,92,85,73,29.93,29.78,13,5,17,0.02
2013-9-3,69.0,61.9,52.0,57.0,52.8,49.0,94,73,53,30.02,29.92,9,3,17,0.02
2013-9-4,65.0,59.6,53.0,62.0,53.8,45.0,96,81,62,30.16,29.93,10,4,15,0.02
2013-9-5,62.0,53.5,43.0,49.0,43.9,41.0,95,72,48,30.32,30.16,10,3,13,0.19
2013-9-6,75.0,60.3,44.0,60.0,50.6,41.0,92,72,56,30.25,29.98,7,3,11,0.01
2013-9-7,77.0,69.1,65.0,72.0,64.9,55.0,97,87,68,30.01,29.87,12,3,17,0.10
2013-9-8,70.0,60.3,52.0,63.0,51.4,-99.9,95,77,53,30.17,30.01,9,2,16,0.20
2013-9-9,75.0,63.8,55.0,69.0,58.9,51.0,94,84,74,30.05,29.75,5,2,11,0.16
2013-9-10,86.0,77.4,68.0,72.0,69.8,66.0,95,78,60,29.96,29.74,10,3,14,0.03
2013-9-11,76.0,69.2,64.0,68.0,65.0,63.0,97,87,73,29.99,29.91,5,2,13,0.10
2013-9-12,67.0,59.8,51.0,65.0,53.0,44.0,96,79,64,30.07,29.91,17,7,30,0.07
2013-9-13,56.0,49.5,44.0,48.0,42.4,39.0,92,77,59,30.18,30.06,13,5,17,0.03
2013-9-14,65.0,51.5,38.0,52.0,45.0,36.0,95,80,59,30.15,30.01,7,2,13,0.01
2013-9-15,59.0,54.1,52.0,56.0,48.9,-99.9,95,87,81,30.19,29.99,14,3,22,0.01
2013-9-16,56.0,48.7,41.0,47.0,40.7,37.0,88,74,53,30.42,30.19,10,4,14,0.04
2013-9-17,67.0,49.6,38.0,49.0,41.8,36.0,92,77,40,30.41,30.19,6,2,10,0.04
2013-9-18,67.0,48.8,46.0,48.0,44.9,42.0,95,86,79,30.19,29.96,4,2,8,0.04
2013-9-19,78.0,68.3,62.0,72.0,63.7,56.0,98,86,67,29.96,29.77,7,3,12,0.03
2013-9-20,68.0,64.8,60.0,66.0,62.0,56.0,94,90,86,29.71,29.67,6,2,18,0.01
2013-9-21,60.0,54.0,49.0,56.0,47.3,39.0,92,78,64,29.91,29.71,14,6,23,0.03
2013-9-22,52.0,47.6,45.0,43.0,38.1,-99.9,83,73,65,30.10,29.91,8,3,18,0.01
2013-9-23,62.0,47.5,35.0,47.0,41.2,33.0,95,81,53,30.19,30.11,8,2,10,0.02
2013-9-24,66.0,50.6,38.0,52.0,45.4,36.0,96,84,58,30.16,30.01,7,2,13,0.01
2013-9-25,68.0,52.8,40.0,52.0,47.1,39.0,96,83,53,30.05,30.00,7,1,10,0.02
2013-9-26,71.0,53.2,39.0,55.0,46.9,38.0,97,82,45,30.14,30.03,9,2,12,0.01
2013-10-2,69.0,60.5,50.0,61.0,47.0,39.0,87,64,35,30.07,29.84,5,2,10,0.01
2013-10-3,67.0,55.1,43.0,58.0,51.9,40.0,97,89,68,30.07,29.91,7,1,11,0.03
2013-10-4,59.0,56.4,55.0,58.0,54.9,53.0,97,94,91,30.10,29.91,6,2,11,0.03
2013-10-5,59.0,56.2,54.0,56.0,54.2,52.0,96,93,86,30.09,29.88,11,2,12,0.05
2013-10-6,67.0,57.9,51.0,66.0,56.5,49.0,98,95,91,29.87,29.62,8,2,14,0.08
2013-10-7,56.0,50.2,43.0,51.0,46.5,41.0,96,88,69,30.05,29.55,11,4,17,0.03
2013-10-8,68.0,52.8,38.0,53.0,45.3,37.0,97,78,49,30.19,30.05,5,2,11,0.06
2013-10-9,72.0,59.6,50.0,55.0,49.8,45.0,95,72,50,30.24,30.15,6,2,11,0.04
2013-10-10,73.0,54.4,43.0,52.0,46.8,41.0,95,79,37,30.21,30.11,6,1,10,0.04
2013-10-11,71.0,53.4,41.0,54.0,45.5,40.0,98,79,40,30.15,30.04,6,1,9,0.03
2013-10-12,77.0,61.8,46.0,59.0,50.7,42.0,91,70,37,30.05,29.92,7,2,31,0.02
2013-10-13,61.0,52.6,44.0,56.0,43.8,-99.9,87,75,67,30.39,30.03,11,2,12,0.01
2013-10-18,53.0,44.7,37.0,49.0,42.3,35.0,95,91,76,29.80,29.73,5,2,9,0.01
2013-10-19,50.0,43.4,37.0,44.0,39.5,32.0,96,86,61,29.80,29.68,8,2,11,0.01
2013-10-20,51.0,42.4,35.0,43.0,36.1,-99.9,95,82,57,29.81,29.68,8,2,12,0.01
2013-10-21,48.0,42.6,34.0,47.0,39.3,30.0,96,88,71,29.76,29.61,10,4,16,0.01
2013-10-22,43.0,38.6,34.0,38.0,33.9,29.0,92,83,70,29.86,29.65,13,5,19,0.01
2013-10-23,42.0,36.6,32.0,36.0,31.1,28.0,94,81,59,29.86,29.81,8,3,15,0.31
2013-10-24,44.0,38.7,35.0,37.0,34.2,30.0,94,84,69,30.11,29.85,15,4,19,1.82
2013-10-25,43.0,40.0,33.0,38.0,31.9,28.0,95,74,58,30.22,29.80,11,4,20,0.01
2013-10-26,46.0,42.6,38.0,38.0,34.9,31.0,85,74,69,29.94,29.64,17,7,27,0.01
2013-10-27,46.0,40.2,34.0,39.0,33.2,-99.9,95,79,61,29.96,29.85,8,3,18,0.01
2013-10-28,46.0,35.6,27.0,38.0,25.6,-99.9,82,70,55,30.48,29.97,16,6,21,0.01
2013-10-29,40.0,31.0,22.0,32.0,25.4,19.0,90,80,61,30.49,30.23,4,1,8,2.02
2013-10-30,54.0,43.5,36.0,46.0,38.2,31.0,90,82,68,30.23,29.85,6,1,10,0.39
2013-10-31,60.0,54.4,50.0,59.0,52.9,46.0,99,95,78,29.85,29.05,10,3,12,0.44
2013-11-1,54.0,47.0,43.0,54.0,44.5,37.0,99,91,80,29.67,28.99,11,4,22,0.55
2013-11-2,42.0,38.4,32.0,37.0,32.8,27.0,90,80,70,30.14,29.67,9,4,12,0.23
2013-11-3,46.0,35.1,27.0,32.0,26.9,-99.9,93,76,54,30.37,30.15,8,2,11,0.03
2013-11-4,50.0,42.1,35.0,33.0,28.8,25.0,80,61,41,30.39,30.15,10,5,19,0.01
2013-11-5,56.0,50.3,46.0,48.0,42.8,32.0,94,76,57,30.27,30.01,9,3,13,0.02
2013-11-6,50.0,43.8,38.0,48.0,40.5,31.0,94,88,78,30.01,29.78,13,5,17,0.15
2013-11-7,38.0,37.3,35.0,33.0,30.0,29.0,87,75,69,30.04,29.97,9,3,15,0.08
2013-11-17,61.0,53.5,44.0,59.0,52.5,42.0,99,97,91,29.47,29.01,13,4,24,1.92
2013-11-18,44.0,35.5,32.0,42.0,27.6,22.0,91,72,64,30.10,29.26,14,7,32,0.14
2013-11-19,34.0,30.0,25.0,23.0,21.6,19.0,86,71,61,30.35,30.10,14,3,17,0.12
2013-11-20,43.0,35.5,28.0,30.0,25.5,22.0,78,67,49,30.34,30.19,9,3,17,0.08
2013-11-21,43.0,39.2,36.0,39.0,34.6,28.0,95,84,68,30.20,30.16,4,1,9,0.05
2013-11-22,40.0,32.3,29.0,39.0,28.8,23.0,95,87,75,30.36,30.17,15,5,22,0.11
2013-11-23,32.0,26.1,22.0,23.0,19.0,14.0,87,74,64,30.30,30.22,14,8,24,0.02
2013-11-24,22.0,20.4,19.0,14.0,12.0,11.0,81,69,65,30.53,30.16,10,5,18,0.00
2013-11-25,35.0,30.4,23.0,29.0,24.0,14.0,90,77,62,30.14,29.85,13,6,23,0.00
2013-11-26,35.0,29.4,22.0,31.0,25.2,14.0,92,84,68,30.05,29.90,16,5,21,0.00
2013-12-3,30.0,26.6,22.0,28.0,21.5,17.0,91,81,75,29.97,29.90,8,2,10,0.00
2013-12-4,44.0,34.4,30.0,43.0,32.2,28.0,95,91,88,29.91,29.42,8,2,16,0.26
2013-12-5,49.0,33.0,22.0,46.0,26.1,12.0,95,76,66,30.09,29.41,17,7,30,0.01
2013-12-6,21.0,20.4,19.0,13.0,11.1,9.0,74,67,60,30.34,30.09,10,4,20,0.00
2013-12-7,20.0,17.4,17.0,11.0,6.2,-99.9,76,64,58,30.53,30.34,11,4,17,0.00
2013-12-8,18.0,17.5,16.0,14.0,9.6,6.0,84,71,60,30.51,30.05,9,2,14,0.00
2013-12-9,21.0,19.6,12.0,18.0,15.9,6.0,88,86,73,30.03,29.77,10,3,22,0.00
2013-12-10,17.0,13.3,9.0,11.0,7.0,3.0,81,76,65,30.03,29.75,13,4,18,0.00
2013-12-11,15.0,12.9,12.0,9.0,5.7,3.0,81,73,65,30.32,30.03,12,4,17,0.00
2013-12-12,20.0,14.7,10.0,12.0,7.8,2.0,83,74,63,30.30,30.03,10,4,21,0.00
2013-12-24,11.0,3.1,-11.0,4.0,-3.3,-17.0,81,74,62,30.47,30.33,5,1,6,0.05
2013-12-25,23.0,17.8,8.0,20.0,13.8,4.0,89,85,79,30.39,30.01,10,4,17,0.01
2013-12-26,23.0,20.9,19.0,21.0,16.8,14.0,94,85,74,30.19,29.97,9,2,15,0.00
2013-12-27,37.0,24.5,17.0,32.0,20.0,12.0,87,83,77,30.22,29.87,10,3,17,0.00
2013-12-28,42.0,34.8,27.0,35.0,29.5,-99.9,98,84,74,29.98,29.74,7,2,16,0.26
2013-12-29,36.0,20.7,12.0,34.0,16.2,1.0,97,83,61,30.04,29.68,15,8,21,0.01
2013-12-30,14.0,12.2,11.0,10.0,5.8,0.0,82,75,60,30.20,30.04,8,3,14,0.00
2013-12-31,11.0,10.0,8.0,7.0,4.3,0.0,84,77,66,30.30,29.98,9,4,20,0.00
2014-1-1,9.0,8.3,6.0,1.0,-0.9,-4.0,73,65,57,30.43,30.29,6,3,10,0.00
2014-1-2,-1.0,-6.5,-11.0,-7.0,-12.4,-17.0,77,75,74,30.34,30.32,2,0,4,0.00